Theta_e
313 312 311 309 307 305 305 305 305 305 306 305 304 302 301 301 301 302 304 304 306 307 305 305 305 305 304 303 305 304 304 303 303 302 302 303 305 304 304 304 304 305 307
308 308 307 305 304 303 303 304 305 305 306 305 305 303 302 301 302 303 305 305 306 307 306 305 305 304 304 305 304 306 307 307 302 300 298 296 300 302 304 303 304 303 305
306 305 304 302 301 301 301 303 305 305 306 306 306 305 304 303 302 302 303 304 306 307 306 305 305 304 305 304 307 307 307 305 303 302 299 295 292 296 301 301 302 302 303
295 298 299 297 297 298 299 302 304 305 306 306 305 303 301 300 301 302 302 303 304 304 306 306 306 305 305 304 305 309 307 307 303 303 305 304 303 294 293 298 300 302 303
293 293 295 298 300 301 301 301 304 305 306 305 305 303 301 301 302 302 303 303 303 304 304 306 305 304 305 304 304 304 306 307 305 304 303 303 303 303 300 294 297 301 303
294 296 298 301 301 302 302 303 304 305 305 305 304 303 302 301 301 301 301 302 303 303 303 306 305 304 304 303 304 303 303 306 306 305 303 303 302 301 301 299 300 298 299
295 296 297 299 301 301 302 303 304 302 302 303 302 301 301 300 300 300 301 301 301 301 301 301 304 303 304 304 304 303 302 302 301 302 303 301 304 306 305 303 301 299 299
294 295 296 296 297 298 298 299 299 299 298 298 298 298 298 298 299 300 300 301 300 301 301 301 301 305 304 304 304 303 302 301 301 300 299 300 301 303 305 304 302 299 299
293 294 294 295 295 295 295 295 295 295 295 295 295 295 295 296 296 297 298 299 300 302 302 301 300 302 303 304 303 302 301 301 300 300 299 299 300 301 301 305 305 301 296
291 292 293 293 293 293 293 293 294 294 293 293 293 294 293 294 295 295 295 296 297 299 299 300 300 300 301 302 302 301 301 300 300 300 299 298 299 299 300 300 301 304 301
291 291 291 292 292 291 291 292 292 293 292 293 292 292 293 294 293 293 293 294 295 296 297 299 299 299 299 300 300 300 300 300 299 299 298 298 298 298 298 298 299 298 300
290 291 291 291 290 290 290 290 291 291 292 292 292 292 292 292 292 292 293 295 295 296 297 298 298 299 299 299 299 299 300 299 298 298 297 297 300 297 297 296 296 296 297
290 290 290 290 290 289 290 290 290 290 291 291 291 291 291 291 290 291 293 294 295 295 296 297 297 298 299 298 298 299 299 298 299 298 297 297 297 295 295 295 295 295 297
290 290 289 289 289 289 289 289 290 290 290 291 291 290 290 290 291 291 292 293 294 294 294 295 296 297 297 298 298 298 298 298 298 298 298 297 297 296 296 296 295 296 294
289 289 288 288 288 288 289 289 289 290 290 290 290 290 290 291 291 291 291 292 292 292 293 293 293 294 295 298 297 298 297 297 297 297 298 298 298 299 299 297 295 294 294
290 290 289 289 289 289 288 289 290 290 290 289 289 290 290 290 290 290 290 290 290 290 291 291 291 291 294 298 300 299 296 296 296 295 296 296 297 298 301 302 302 298 293
290 289 289 288 288 288 289 289 290 291 290 290 290 290 291 290 290 290 290 289 289 289 289 290 290 290 291 297 299 300 294 293 293 294 294 295 297 297 295 297 300 300 302
289 288 288 288 288 289 289 288 288 289 289 288 288 289 289 289 289 289 288 288 288 289 289 289 290 289 291 296 298 299 293 291 292 292 292 291 292 293 294 293 292 293 294
288 287 287 288 288 288 287 286 286 286 286 286 286 287 287 287 288 287 287 287 287 287 287 288 288 288 289 295 298 297 291 291 290 291 291 291 291 295 298 294 292 292 291
287 287 288 288 286 286 286 285 285 285 285 286 287 287 287 287 286 287 286 287 287 288 288 288 288 290 288 293 297 297 291 289 289 290 291 294 294 297 298 293 291 289 290
288 288 287 286 286 286 285 284 284 284 286 287 287 287 287 286 286 286 286 286 286 286 286 286 286 287 289 289 295 296 292 290 289 289 290 291 295 297 297 297 291 291 292
287 286 285 285 286 286 285 284 283 285 286 286 286 285 285 286 287 285 284 285 285 284 283 284 285 286 286 291 292 295 296 296 289 289 290 290 295 296 297 297 296 297 296
285 286 285 284 285 285 285 283 284 285 284 284 284 284 284 284 285 284 283 283 283 283 283 283 283 285 287 286 291 293 294 294 291 290 293 295 295 296 295 295 296 296 289
285 285 284 283 283 284 284 284 283 284 283 282 282 283 283 284 283 284 284 282 281 282 282 283 283 284 285 285 286 287 287 291 291 291 289 292 293 292 292 291 289 287 288
285 285 284 283 283 283 283 283 283 283 282 282 282 282 283 282 282 283 282 281 282 283 283 284 283 283 284 286 290 290 288 287 289 290 286 285 284 286 287 288 287 287 286
284 283 283 283 283 283 283 284 284 283 282 281 281 281 282 281 281 281 281 286 288 290 291 291 289 288 290 291 291 290 290 290 291 285 281 281 282 282 283 284 285 286 287
Wind_Speed
7 7 8 8 7 6 7 7 6 5 3 1 1 1 1 2 2 2 4 3 2 2 2 2 3 4 3 4 4 3 5 3 5 4 4 3 5 6 4 4 4 6 6
6 6 7 6 8 7 7 6 6 5 4 2 2 2 1 2 3 3 4 4 3 4 3 2 3 3 3 5 5 5 4 6 4 2 0 4 4 5 4 4 5 7 5
10 8 7 7 4 5 6 6 6 6 4 4 2 1 1 2 2 2 3 3 4 4 4 3 3 3 2 3 4 4 6 5 4 5 2 3 2 3 3 4 4 6 4
5 5 7 5 6 5 3 4 4 5 3 4 2 2 2 1 2 2 2 5 5 6 5 5 4 3 2 3 3 2 3 3 5 4 3 1 2 2 5 3 4 5 5
7 8 8 7 5 4 3 3 3 3 2 3 3 2 2 2 2 3 5 5 5 5 5 5 5 4 3 3 3 3 4 3 2 2 4 4 4 4 3 3 5 4 4
7 6 5 6 4 3 3 3 3 1 1 1 2 2 4 5 4 4 4 4 4 4 5 4 4 5 4 4 3 3 4 3 3 2 2 2 2 3 3 5 6 6 4
8 7 7 6 5 4 2 1 1 2 4 3 2 2 3 3 5 5 4 5 4 3 5 3 3 4 5 5 5 4 4 4 2 3 2 2 3 2 2 2 3 2 4
7 7 6 6 6 5 5 5 5 4 5 4 4 4 4 2 3 3 3 4 3 4 5 5 4 5 5 5 5 3 4 4 3 4 4 3 4 3 2 2 2 3 3
8 8 7 6 6 5 5 5 5 5 6 5 5 5 5 5 4 6 4 3 5 4 5 5 5 5 5 6 5 4 5 3 3 5 5 4 4 3 3 3 3 2 3
7 7 6 6 4 5 4 5 5 5 3 4 3 3 4 5 5 4 6 6 6 5 6 6 6 6 6 5 5 4 5 4 4 3 5 4 3 4 3 3 3 3 4
7 7 6 5 5 4 5 4 4 4 4 4 3 4 4 5 4 4 5 5 6 6 6 6 6 6 6 5 5 6 6 6 5 4 5 6 5 4 4 3 3 4 3
8 7 7 6 5 5 4 4 3 3 2 2 3 4 4 5 5 5 6 6 6 6 5 5 5 5 5 5 5 6 5 6 6 6 5 6 4 5 5 4 5 4 5
8 7 6 6 5 4 3 3 3 3 3 3 4 5 6 6 6 6 6 6 6 6 6 6 6 6 6 5 5 5 6 6 6 6 6 6 5 5 4 4 5 4 5
9 7 6 6 5 4 3 3 2 1 2 3 4 5 5 5 5 5 6 6 6 6 7 6 6 6 6 6 6 5 6 6 5 6 6 6 6 6 6 5 6 5 4
7 7 7 6 5 5 3 3 2 1 1 4 5 5 5 5 5 6 6 6 6 6 6 6 6 6 6 5 6 6 6 6 6 6 6 6 7 9 9 4 6 5 4
11 9 8 8 8 7 6 5 2 2 2 4 3 3 4 4 5 5 6 6 6 6 6 6 6 6 5 11 11 8 5 5 5 6 6 5 6 8 12 13 14 9 6
12 11 10 7 6 6 5 4 3 3 4 3 4 4 5 5 5 5 5 5 6 5 6 6 6 7 7 13 13 12 4 4 5 5 5 5 4 7 6 10 12 10 13
11 9 8 7 7 6 5 4 4 4 4 3 3 4 5 5 5 5 6 6 4 5 5 6 6 6 6 13 14 13 5 4 5 5 5 5 6 6 8 7 7 7 7
8 7 7 6 6 7 6 6 4 4 3 2 2 3 3 4 5 6 6 5 4 5 4 5 6 6 7 13 12 9 5 5 6 5 6 6 6 10 13 6 6 7 6
7 8 7 5 7 5 5 5 4 3 1 0 2 3 3 3 4 4 5 3 3 4 4 6 5 8 6 12 13 10 4 4 4 5 5 9 9 13 12 6 5 6 5
8 7 7 7 7 6 6 5 4 4 3 2 2 2 3 4 4 4 3 4 5 5 5 5 5 6 6 8 15 16 5 4 3 4 4 4 12 13 12 11 5 6 6
7 7 6 6 5 6 6 5 4 3 2 2 2 3 3 3 3 4 5 4 4 5 6 6 6 4 5 8 11 15 13 10 4 6 5 5 13 14 15 10 11 14 12
7 5 6 6 5 6 5 5 3 2 2 2 3 3 4 4 3 3 5 4 4 4 5 4 4 7 6 4 12 15 15 12 7 4 9 16 15 16 12 14 17 14 4
7 6 7 6 5 5 5 3 1 2 2 3 4 3 4 5 4 3 3 3 4 4 4 4 4 5 6 5 4 5 5 8 7 8 6 11 14 14 14 10 7 5 4
5 6 6 6 6 5 3 3 3 2 3 3 4 4 3 4 5 4 4 4 5 5 4 5 4 4 6 7 13 12 7 5 9 13 4 5 5 5 8 8 5 4 5
5 5 5 5 5 4 3 3 3 2 3 4 4 4 3 4 3 4 6 9 11 15 14 14 10 6 12 17 18 19 17 16 17 4 3 4 4 5 6 8 9 9 10
Wind_Direction
191 176 165 168 166 178 178 181 167 185 143 139 242 42 301 303 297 277 279 283 294 311 343 340 342 346 352 326 336 325 339 336 341 355 347 354 41 36 47 27 17 6 354
161 174 173 173 180 172 183 180 189 177 186 160 181 149 196 257 259 286 297 289 285 265 277 277 301 310 339 360 353 335 338 353 20 339 268 2 332 5 4 12 15 1 345
185 185 177 192 177 186 192 192 195 189 189 168 114 56 17 345 328 332 317 316 293 272 262 259 255 296 349 336 335 338 346 343 340 17 95 8 328 328 329 351 358 358 353
167 162 171 172 192 215 212 211 195 182 177 157 136 166 187 256 262 279 290 306 307 296 281 254 246 257 283 307 304 339 330 339 339 339 358 333 337 343 328 329 330 338 352
154 161 179 185 200 152 178 177 164 161 155 162 169 179 241 239 273 300 314 313 306 302 294 259 250 246 254 269 294 325 321 305 311 343 326 326 314 298 294 303 328 338 337
161 150 139 134 135 134 137 139 144 189 257 217 220 232 264 298 317 310 310 306 305 308 308 293 248 243 250 248 256 269 278 292 305 292 300 294 313 314 303 304 321 315 309
161 152 144 139 127 114 82 66 81 35 30 55 35 338 302 294 286 294 293 313 313 303 305 307 282 248 245 254 250 244 256 262 259 271 271 263 284 257 281 286 284 300 313
157 150 147 129 112 101 91 82 77 71 49 47 25 13 9 347 313 309 309 292 272 279 284 291 285 271 253 254 259 255 241 241 252 260 238 254 258 284 244 256 302 307 291
153 144 133 127 123 106 88 94 89 69 46 35 23 16 3 360 338 326 309 298 300 291 299 303 292 279 259 250 248 244 255 237 241 252 254 235 244 246 266 265 230 228 293
141 137 137 134 117 107 98 78 74 73 49 33 25 8 349 350 342 345 346 336 321 321 316 305 297 287 275 265 254 253 251 246 250 239 257 255 241 236 240 250 273 241 232
158 149 142 127 118 103 92 91 78 73 40 25 7 11 357 357 357 355 339 332 321 324 320 316 306 295 293 284 263 254 255 247 255 254 247 259 248 243 233 229 241 256 241
160 155 150 145 130 118 112 102 77 67 35 10 16 12 8 6 6 351 338 334 330 324 322 322 322 318 308 297 272 265 257 245 253 253 256 260 249 243 241 232 234 233 238
162 158 147 151 151 142 126 105 70 40 17 23 28 23 17 11 360 351 344 340 340 336 338 342 332 323 317 312 297 266 265 257 250 248 245 255 252 262 249 238 236 232 245
166 162 161 159 155 145 125 102 76 39 32 44 39 31 16 9 0 349 351 349 348 350 347 341 336 336 328 321 311 303 288 273 257 251 242 250 245 248 249 241 237 239 236
164 169 163 170 158 154 153 143 127 98 90 63 48 24 7 10 1 2 358 353 356 348 340 342 346 345 341 335 332 318 304 291 281 270 262 252 245 242 249 246 244 226 231
182 172 172 170 177 175 177 171 159 111 100 85 70 31 19 15 5 360 357 353 348 343 343 348 345 339 334 320 326 331 318 305 292 287 281 272 277 277 276 269 251 226 222
174 176 177 173 167 172 156 155 160 139 100 69 32 16 6 1 356 351 356 351 342 332 338 337 343 333 324 325 330 323 315 310 301 291 291 294 280 290 285 284 283 272 254
166 167 165 164 166 159 153 151 144 135 116 72 29 7 3 358 351 353 350 338 332 341 336 333 335 330 323 333 332 333 329 320 309 301 293 286 290 281 286 278 279 269 260
162 160 159 153 152 154 161 151 136 132 106 58 12 352 350 348 351 354 344 329 339 334 336 322 330 337 323 336 338 349 339 329 325 318 315 299 290 292 300 279 272 279 275
140 148 152 141 143 165 151 139 141 140 141 240 308 327 337 337 329 323 325 305 319 315 322 325 326 326 327 334 342 345 326 326 327 323 315 322 324 325 326 317 293 286 270
149 144 146 157 170 158 148 149 162 196 211 235 276 314 328 327 320 327 316 322 325 328 332 325 318 314 327 326 342 344 322 295 312 311 310 302 312 317 317 312 293 270 281
142 147 144 158 167 164 154 168 196 211 216 246 305 324 323 318 325 326 323 325 329 330 322 322 324 316 312 329 331 339 344 337 329 308 300 285 300 302 296 294 281 294 299
156 155 155 164 179 180 176 177 222 208 250 280 292 296 308 309 309 319 322 323 329 319 310 313 315 319 321 312 318 325 327 327 320 286 296 309 309 306 301 299 302 301 285
162 156 155 169 180 182 189 203 223 238 241 269 285 298 315 311 316 306 286 307 308 313 302 306 302 301 305 306 300 292 304 311 313 301 295 305 309 312 306 313 310 293 279
153 154 166 175 194 191 204 205 224 238 277 287 286 283 274 285 298 290 272 277 259 229 279 281 262 287 296 295 306 315 310 301 305 313 308 307 298 307 309 308 284 285 300
156 161 178 179 198 200 220 254 264 257 275 289 283 275 276 279 271 278 298 287 268 280 286 282 278 281 274 295 301 306 306 307 309 315 308 305 310 317 311 308 306 305 301